Weather in Parghelia

Italy     38°40′57″N   15°55′14″E
temp.,
°C
wind,
m/s
gust,
m/s
humid.,
%
clouds,
%
prec.,
mm/h
press.,
hPa
HPBL,
m
14 april, wed
wed1423:00+13w44729 0.2 1020678
02:00+12wnw446915 0.3 1020829
05:00+12w336989 0.1 1019488
08:00+13w2362100 0.1 1020750
11:00+14wnw325962 0.0 1020842
14:00+14nnw436442 0.0 1020682
17:00+14nnw33661 0.0 1019588
20:00+13ne22695 0.0 1019357
15 april, thu
thu1523:00+11sse337786 0.0 1020140
02:00+10ese327412 0.0 1020154
05:00+10ese336913 0.0 1019153
08:00+11ese336498 0.0 1019191
11:00+13ne015785 0.0 1019288
14:00+14nw236098 0.0 1019439
17:00+14nw12625 0.0 1017422
20:00+13e1270100 0.0 1018296
16 april, fri
fri1623:00+12e4475100 0.0 1017154
02:00+11e3372100 0.0 1016168
05:00+11e5667100 0.1 1013286
08:00+11ese6870100 0.2 1014462
11:00+13e8869100 2.3 1012757
14:00+14e101263100 2.3 1010844
17:00+14e1216621 0.0 10071028
20:00+12e91369100 0.1 1007896
17 april, sat
sat1723:00+12e71072100 0.1 1007688
02:00+12e7117771 0.1 1005590
05:00+13e4676100 0.0 1004353
08:00+11nnw4487100 0.9 1005357
11:00+12wnw3487100 1.1 1006418
14:00+12nw5687100 1.5 1007683
17:00+12wnw4683100 0.6 1008705
20:00+13wnw348178 1.0 1010627
18 april, sun
sun1823:00+13w237481 0.4 1012594
02:00+12ese227746 0.4 1011148
05:00+11ese337834 0.0 1011136
08:00+12ese457942 0.0 1011227
11:00+14sw347786 1.4 1012578
14:00+12ene5584100 2.9 1009408
17:00+12nw2284100 1.1 1011390
20:00+11s1186100 2.8 1011215